0 HST 1 20580U 90037B 26167.16527473 .00005381 00000-0 16841-3 0 9991 2 20580 28.4719 87.5586 0001853 131.7056 228.3698 15.30736864788416 0 ISS (ZARYA) 1 25544U 98067A 26167.09292088 .00007536 00000-0 14355-3 0 9992 2 25544 51.6337 305.5091 0004806 191.3253 168.7628 15.49253146571586 0 CXO 1 25867U 99040B 26169.37713324 .00000529 00000-0 00000-0 0 9990 2 25867 56.2189 116.5542 7835469 310.3049 0.1821 0.37804062 17322